Date String (YYYY-MM-DD hh:mm:ss) UTC,Instrument flags,Ambient pressure (hPa),Sample flow (lpm),Bypass flow (lpm),Sample temperature (°C),Ambient temperature (°C),ASC tube jacket temperature (°C),LED temperature (°C),Box temperature (°C),Sample RH (%),Span deviation,Mass concentration (μg/m³),Mass concentration (μg/m³),Mass concentration (μg/m³)
DateTimeUTC,F1_M11,P_M11,Q1_M11,Q2_M11,T1_M11,T2_M11,T3_M11,T4_M11,T5_M11,U1_M11,ZSPAN_M11,X0_M11,X2_M11,X1_M11
2023-01-09 20:00:00,,0821.7,4.99,0.00,23.5,22.1,00.0,32.3,25.2,11.4,0000.0,0014.21,0005.35,0004.26
2023-01-09 20:01:00,,0821.6,5.00,0.00,23.5,22.1,00.0,32.3,25.2,11.1,0000.0,0014.53,0005.35,0004.22
2023-01-09 20:02:00,,0821.6,5.01,0.00,23.5,22.0,00.0,32.3,25.2,11.0,0000.0,0015.65,0005.39,0004.16
2023-01-09 20:03:00,,0821.5,4.99,0.00,23.4,22.0,00.0,32.3,25.2,11.2,0000.0,0015.75,0005.36,0004.11
2023-01-09 20:04:00,,0821.6,5.00,0.00,23.4,22.0,00.0,32.3,25.2,11.7,0000.0,0015.42,0005.33,0004.05
2023-01-09 20:05:00,,0821.7,5.00,0.00,23.4,22.0,00.0,32.3,25.2,11.5,0000.0,0015.35,0005.32,0004.03
2023-01-09 20:06:00,,0821.8,5.01,0.00,23.4,22.1,00.0,32.3,25.2,12.2,0000.0,0015.36,0005.35,0004.02
2023-01-09 20:07:00,,0821.8,5.01,0.00,23.4,22.1,00.0,32.3,25.2,11.8,0000.0,0015.27,0005.36,0004.03
2023-01-09 20:08:00,,0821.8,5.00,0.00,23.4,22.2,00.0,32.3,25.2,11.9,0000.0,0014.80,0005.38,0004.05
2023-01-09 20:09:00,,0821.8,5.00,0.00,23.4,22.2,00.0,32.3,25.2,12.5,0000.0,0014.33,0005.43,0004.12
2023-01-09 20:10:00,,0821.8,5.00,0.00,23.4,22.2,00.0,32.3,25.2,12.2,0000.0,0014.05,0005.43,0004.16
2023-01-09 20:11:00,,0821.7,4.99,0.00,23.4,22.3,00.0,32.3,25.2,11.8,0000.0,0014.90,0005.41,0004.18
2023-01-09 20:12:00,,0821.7,5.00,0.00,23.4,22.2,00.0,32.3,25.2,11.4,0000.0,0015.28,0005.43,0004.19
2023-01-09 20:13:00,,0821.7,4.99,0.00,23.4,22.2,00.0,32.3,25.2,11.4,0000.0,0014.58,0005.38,0004.19
2023-01-09 20:14:00,,0821.7,5.00,0.00,23.4,22.1,00.0,32.3,25.2,11.7,0000.0,0014.10,0005.34,0004.20
2023-01-09 20:15:00,,0821.8,4.99,0.00,23.4,22.2,00.0,32.3,25.2,11.2,0000.0,0014.69,0005.32,0004.23
2023-01-09 20:16:00,,0821.8,5.01,0.00,23.4,22.2,00.0,32.3,25.2,11.3,0000.0,0014.68,0005.26,0004.22
2023-01-09 20:17:00,,0821.8,5.01,0.00,23.4,22.2,00.0,32.3,25.2,11.4,0000.0,0014.84,0005.17,0004.21
2023-01-09 20:18:00,,0821.8,5.01,0.00,23.5,22.3,00.0,32.3,25.2,11.4,0000.0,0016.36,0005.13,0004.21
2023-01-09 20:19:00,,0821.8,5.00,0.00,23.5,22.3,00.0,32.3,25.2,11.9,0000.0,0017.07,0005.13,0004.22
2023-01-09 20:20:00,,0821.8,5.01,0.00,23.5,22.3,00.0,32.3,25.2,12.4,0000.0,0016.75,0005.11,0004.20
2023-01-09 20:21:00,,0821.8,5.00,0.00,23.5,22.4,00.0,32.3,25.3,12.1,0000.0,0016.70,0005.11,0004.20
2023-01-09 20:22:00,,0821.8,4.98,0.00,23.5,22.4,00.0,32.3,25.3,12.1,0000.0,0015.92,0005.13,0004.23
2023-01-09 20:23:00,,0821.8,4.99,0.00,23.5,22.4,00.0,32.3,25.3,12.2,0000.0,0015.80,0005.16,0004.28
2023-01-09 20:24:00,,0821.8,4.99,0.00,23.5,22.4,00.0,32.3,25.3,12.3,0000.0,0016.49,0005.29,0004.37
2023-01-09 20:25:00,,0821.8,5.00,0.00,23.5,22.5,00.0,32.3,25.4,12.2,0000.0,0016.95,0005.42,0004.46
2023-01-09 20:26:00,,0821.8,5.01,0.00,23.6,22.5,00.0,32.4,25.4,11.9,0000.0,0016.49,0005.54,0004.54
2023-01-09 20:27:00,,0821.8,5.00,0.00,23.6,22.5,00.0,32.4,25.4,11.8,0000.0,0017.16,0005.68,0004.62
2023-01-09 20:28:00,,0821.8,5.00,0.00,23.6,22.5,00.0,32.4,25.4,11.5,0000.0,0018.28,0005.76,0004.65
2023-01-09 20:29:00,,0821.7,4.99,0.00,23.6,22.4,00.0,32.4,25.4,12.0,0000.0,0017.35,0005.88,0004.72
2023-01-09 20:30:00,,0821.7,4.99,0.00,23.6,22.5,00.0,32.4,25.4,11.7,0000.0,0016.12,0005.95,0004.79
2023-01-09 20:31:00,,0821.6,4.99,0.00,23.6,22.5,00.0,32.4,25.4,12.0,0000.0,0015.92,0006.04,0004.85
2023-01-09 20:32:00,,0821.6,5.00,0.00,23.6,22.5,00.0,32.4,25.4,12.0,0000.0,0016.75,0006.19,0004.94
2023-01-09 20:33:00,,0821.5,5.01,0.00,23.6,22.5,00.0,32.4,25.4,12.3,0000.0,0017.86,0006.28,0005.00
2023-01-09 20:34:00,,0821.6,5.00,0.00,23.6,22.5,00.0,32.4,25.4,11.7,0000.0,0018.00,0006.36,0005.05
2023-01-09 20:35:00,,0821.5,5.00,0.00,23.6,22.4,00.0,32.4,25.4,11.8,0000.0,0018.00,0006.44,0005.09
2023-01-09 20:36:00,,0821.5,5.00,0.00,23.6,22.4,00.0,32.4,25.4,12.0,0000.0,0018.46,0006.45,0005.14
2023-01-09 20:37:00,,0821.5,5.01,0.00,23.6,22.4,00.0,32.4,25.4,12.3,0000.0,0018.83,0006.45,0005.19
2023-01-09 20:38:00,,0821.5,5.00,0.00,23.6,22.4,00.0,32.4,25.4,12.2,0000.0,0018.58,0006.52,0005.27
2023-01-09 20:39:00,,0821.4,5.01,0.00,23.6,22.3,00.0,32.4,25.4,12.2,0000.0,0017.98,0006.68,0005.39
2023-01-09 20:40:00,,0821.4,4.99,0.00,23.6,22.1,00.0,32.4,25.3,12.2,0000.0,0018.19,0006.73,0005.48
2023-01-09 20:41:00,,0821.4,5.00,0.00,23.5,22.0,00.0,32.4,25.2,12.2,0000.0,0018.17,0006.81,0005.53
2023-01-09 20:42:00,,0821.4,5.00,0.00,23.5,22.0,00.0,32.4,25.2,12.5,0000.0,0018.05,0006.81,0005.60
2023-01-09 20:43:00,,0821.4,5.00,0.00,23.5,22.0,00.0,32.4,25.2,12.4,0000.0,0018.11,0006.77,0005.64
2023-01-09 20:44:00,,0821.4,5.00,0.00,23.5,22.1,00.0,32.4,25.3,12.6,0000.0,0018.14,0006.85,0005.70
2023-01-09 20:45:00,,0821.4,5.00,0.00,23.5,22.2,00.0,32.4,25.3,12.6,0000.0,0018.52,0006.92,0005.76
2023-01-09 20:46:00,,0821.4,5.00,0.00,23.5,22.2,00.0,32.4,25.3,12.5,0000.0,0018.61,0006.95,0005.84
2023-01-09 20:47:00,,0821.5,5.01,0.00,23.5,22.3,00.0,32.4,25.4,12.4,0000.0,0017.57,0007.01,0005.87
2023-01-09 20:48:00,,0821.5,4.99,0.00,23.5,22.3,00.0,32.4,25.3,12.3,0000.0,0017.25,0007.08,0005.90
2023-01-09 20:49:00,,0821.6,4.99,0.00,23.5,22.3,00.0,32.4,25.3,12.1,0000.0,0017.58,0007.07,0005.90
2023-01-09 20:50:00,,0821.5,5.01,0.00,23.5,22.3,00.0,32.4,25.4,12.2,0000.0,0017.77,0007.06,0005.89
2023-01-09 20:51:00,,0821.6,5.00,0.00,23.5,22.3,00.0,32.4,25.3,12.2,0000.0,0017.56,0007.08,0005.88
2023-01-09 20:52:00,,0821.5,5.01,0.00,23.5,22.3,00.0,32.4,25.3,12.0,0000.0,0017.22,0007.00,0005.85
2023-01-09 20:53:00,,0821.4,5.00,0.00,23.5,22.3,00.0,32.4,25.3,11.6,0000.0,0017.15,0006.96,0005.79
2023-01-09 20:54:00,,0821.4,5.00,0.00,23.5,22.3,00.0,32.4,25.3,11.5,0000.0,0017.30,0006.89,0005.72
2023-01-09 20:55:00,,0821.4,5.01,0.00,23.5,22.3,00.0,32.4,25.3,11.7,0000.0,0016.28,0006.74,0005.64
2023-01-09 20:56:00,,0821.2,5.00,0.00,23.5,22.3,00.0,32.4,25.3,11.7,0000.0,0015.64,0006.62,0005.56
2023-01-09 20:57:00,,0821.2,5.00,0.00,23.5,22.3,00.0,32.4,25.3,11.9,0000.0,0014.84,0006.49,0005.48
2023-01-09 20:58:00,,0821.3,5.00,0.00,23.5,22.3,00.0,32.4,25.3,11.8,0000.0,0015.53,0006.42,0005.42
2023-01-09 20:59:00,,0821.3,5.01,0.00,23.5,22.2,00.0,32.4,25.2,11.7,0000.0,0015.64,0006.33,0005.36
